KIFPKHII

Guest
Details From KIFP - Laughlin Bullhead Intl
To KHII - Lake Havasu City
Flight Number -
Tags Generated
Created
Modified
Stats Distance 37 nm / 68 km
Max Altitude 0 ft / 0 m
Waypoints 2
Social Downloads 1
Likes 0
Share VATSIM

Download

Looking for another format? Having issues loading an existing format? Contact us
Advertisement - Login to hide

Notes

Generated

Route

KIFP KHII

ID Type Via Altitude Latitude Longitude Leg Dist Tot Dist Heading (true) Name
O KIFP APT - 0 ft / 0 m 35.16769˚ -114.56032˚ - 0 nm - -
O KHII APT - 0 ft / 0 m 34.58061˚ -114.36499˚ 36 nm 36 nm 165° / 165° -

Altitude Profile

Advertisement - Login to hide

KIFP

Details ICAO KIFP
Name Laughlin Bullhead Intl
Region United States
Timezone America/Phoenix (UTC-7.0)
Stats Elevation 701 ft / 214 m (AMSL)
Location 35.155985° -114.559436°
Runways 1
Magnetic Variation 11.293° E

METAR

KIFP 202052Z 18015KT 10SM FEW150 35/00 A2971

Decode

TAF

TAF KIFP 201720Z 2018/2118 20010KT P6SM FEW250 FM202000 19016G23KT P6SM SCT250 FM210400 15007KT P6SM FEW150 BKN250 FM211400 19012KT P6SM SCT100 BKN200

Decode

Departure Runways

ID Width Length Bearing (true) Bearing (mag) Surface Threshold Offset Overrun Length
16 151 ft / 46 m 7,518 ft / 2,292 m 176.47° 165.18° Asphalt 0 ft / 0 m 699 ft / 213 m
34 151 ft / 46 m 7,518 ft / 2,292 m 356.47° 345.18° Asphalt 0 ft / 0 m 200 ft / 61 m

KHII

Details ICAO KHII (HII)
Name LAKE HAVASU CITY
Region United States
Timezone America/Phoenix (UTC-7.0)
Stats Elevation 781 ft / 238 m (AMSL)
Location 34.571123° -114.358277°
Runways 1
Magnetic Variation 11.138° E

METAR

KHII 202115Z AUTO 23005G17KT 10SM CLR 34/01 A2973 RMK AO2

Decode

TAF

Not found

Destination Runways

ID Width Length Bearing (true) Bearing (mag) Surface Threshold Offset Overrun Length
14 100 ft / 30 m 8,012 ft / 2,442 m 149.75° 138.61° Asphalt 0 ft / 0 m 200 ft / 61 m
32 100 ft / 30 m 8,012 ft / 2,442 m 329.76° 318.62° Asphalt 0 ft / 0 m 200 ft / 61 m